Printer-friendly version

IAU Minor Planet Center

Minor Planet Center

MPEC 2007-L47 : 2006 SU19

The following Minor Planet Electronic Circular may be linked-to from your own Web pages, but must not otherwise be redistributed electronically.


Read MPEC 2007-L46 Read MPEC 2007-L48


M.P.E.C. 2007-L47                                Issued 2007 June 12, 09:20 UT

     The Minor Planet Electronic Circulars contain information on unusual
         minor planets and routine data on comets.  They are published
   on behalf of Commission 20 of the International Astronomical Union by the
          Minor Planet Center, Smithsonian Astrophysical Observatory,
                          Cambridge, MA 02138, U.S.A.

             Prepared using the Tamkin Foundation Computer Network

                              MPC@CFA.HARVARD.EDU
          URL http://www.cfa.harvard.edu/iau/mpc.html  ISSN 1523-6714

                                   2006 SU19

                           Revision to MPEC 2006-S33

Additional Observations:
     K06S19U 5C2007 06 11.17234 09 43 19.84 +20 24 44.4          19.8 R EL047673
     K06S19U 5C2007 06 11.18067 09 43 25.31 +20 24 22.6                 EL047673
     K06S19U 5C2007 06 11.18900 09 43 30.72 +20 24 00.5                 EL047673
     K06S19U 5C2007 06 11.19606 09 43 35.36 +20 23 42.2                 EL047673
     K06S19U 5C2007 06 12.18380 09 54 28.47 +19 40 11.4                 EL047673
     K06S19U 5C2007 06 12.19028 09 54 32.75 +19 39 53.4                 EL047673
     K06S19U 5C2007 06 12.19676 09 54 37.02 +19 39 34.8                 EL047673
     K06S19U 5C2007 06 12.20405 09 54 41.86 +19 39 14.0                 EL047673

Observer details:
673 Table Mountain Observatory, Wrightwood.  Observer J. Young.  0.61-m f/16
    Cassegrain + CCD.

First and last observations above in comparison with prediction:
Residuals in seconds of arc (or two decimals in degrees), reference and Delta-T
070611 673 0.03+ 0.01-    070612 673 0.03+ 0.02-    MPO111232   -0.014 day

Orbital elements:
2006 SU19                                           PHA, Earth MOID = 0.0350 AU
Epoch 2007 Apr. 10.0 TT = JDT 2454200.5                 MPC
M 349.74255              (2000.0)            P               Q
n   0.52177093     Peri.   10.55812     -0.95526629     -0.29526236
a   1.5280919      Node   152.25047     +0.26862433     -0.89017861
e   0.5864982      Incl.    2.08321     +0.12372264     -0.34699017
P   1.89           H   19.1           G   0.15           U   4
Residuals in seconds of arc
060918 291  0.1+  0.2-    060927 691  0.4-  0.7-    061018 291  0.4+  1.5-
060918 291  0.2+  0.1-    060927 691  0.4-  1.1-    061021 G96  0.1+  0.4-
060918 291  0.5+  0.3-    060927 291  0.0   0.4+    061021 G96  0.1-  0.0
060919 291  0.0   0.1-    060927 291  0.3-  0.2+    061021 G96  0.2-  0.6-
060919 291  0.2-  0.2-    060927 691  0.4-  0.2-    061021 G96  0.4-  0.2-
060919 291  0.0   0.1-    060928 291  1.0-  0.2+    061026 291  0.3+  0.6+
060920 291  0.0   0.0     060928 291  0.5+  0.5+    061026 291  0.2-  0.3+
060920 291  0.2-  0.0     060928 291  0.3+  0.4+    061026 291  0.5+  0.3+
060920 291  1.4+  0.9-    060930 291  0.1-  0.0     061026 291  0.3+  0.0
060923 291  0.2-  0.0     060930 291  0.3+  0.1+    061026 291  0.6-  0.2+
060923 291  0.4+  0.8+    060930 291  0.0   0.0     061110 291  0.5-  0.0
060923 291  0.3-  0.6+    061011 291  0.2-  0.2+    061110 291  0.1-  0.2+
060924 291  0.1+  0.2+    061011 291  0.3+  0.2+    061110 291  0.3-  0.0
060924 291  0.0   0.1+    061011 291  0.9-  0.1+    070611 673  0.4-  1.0+
060924 291  0.0   0.4+    061013 291  0.1-  0.3+    070611 673  0.5+  0.6+
060925 291  0.2+  0.2-    061013 291  0.4-  0.0     070611 673  0.5+  0.1-
060925 291  0.2-  0.0     061013 291  0.3+  0.3+    070611 673  1.2+  0.2-
060925 291  0.1-  0.2+    061015 291  0.0   0.5+    070612 673  0.2-  0.1-
060926 G96  0.3-  0.5-    061015 291  0.5+  0.6+    070612 673  0.3-  0.1+
060926 G96  0.8-  0.3-    061015 291  0.2-  0.5+    070612 673  0.6-  0.3-
060926 G96  0.6-  0.5-    061018 291  0.1-  1.0-    070612 673  0.6-  0.7-
060926 G96  0.8-  0.6+    061018 291  1.2+  0.9-

Ephemeris:
2006 SU19                a,e,i = 1.53, 0.59, 2                   q = 0.6319
Date    TT    R. A. (2000) Decl.     Delta      r     Elong.  Phase     V
2007 06 09    09 20.23   +21 47.5    0.313    0.891    58.2   104.4    20.2
2007 06 19    11 12.87   +13 05.9    0.276    0.991    76.9    87.4    19.4
2007 06 29    12 58.07   +01 28.9    0.305    1.091    95.9    67.9    19.1
2007 07 09    14 13.69   -07 18.2    0.386    1.190   107.3    54.7    19.4
2007 07 19    15 05.27   -12 41.1    0.497    1.285   111.5    47.4    19.9
2007 07 29    15 42.80   -16 00.8    0.627    1.376   111.7    43.3    20.5
2007 08 08    16 12.49   -18 11.8    0.769    1.463   109.5    40.8    21.0
2007 08 18    16 37.79   -19 42.3    0.921    1.546   106.1    39.0    21.4
2007 08 28    17 00.55   -20 46.2    1.081    1.625   101.9    37.5    21.8
2007 09 07    17 21.78   -21 30.8    1.247    1.699    97.2    36.1    22.2
2007 09 17    17 42.10   -22 00.3    1.417    1.769    92.2    34.6    22.5

Timothy B. Spahr             (C) Copyright 2007 MPC           M.P.E.C. 2007-L47

Read MPEC 2007-L46 Read MPEC 2007-L48


Our Web policy. Index to the CBAT/MPC/ICQ pages.


Valid HTML 4.01!